| time (UTC) | temp F | wind direction | speed knots | gust knots | rain 1hr in | rain 24hr in | rain mn in | humidity % | barometer mb |
| 20260510214415 | 50 | 8 | 7.0 | 15.6 | 0.00 | 0.00 | 0.00 | 82 | 1011.4 |
| 20260510213321 | 50 | 21 | 7.0 | 13.0 | 0.00 | 0.00 | 0.00 | 82 | 1011.4 |
| 20260510212852 | 50 | 320 | 7.0 | 13.0 | 0.00 | 0.00 | 0.00 | 82 | 1011.4 |
| 20260510211822 | 50 | 354 | 6.1 | 10.4 | 0.00 | 0.00 | 0.00 | 82 | 1011.5 |
| 20260510211323 | 50 | 19 | 7.0 | 15.6 | 0.00 | 0.00 | 0.00 | 82 | 1011.6 |
| 20260510210823 | 50 | 335 | 7.8 | 15.6 | 0.00 | 0.00 | 0.00 | 82 | 1011.6 |
| 20260510210326 | 50 | 6 | 7.8 | 13.9 | 0.00 | 0.00 | 0.00 | 82 | 1011.6 |
| 20260510205822 | 51 | 13 | 7.8 | 15.6 | 0.00 | 0.00 | 0.00 | 82 | 1011.8 |
| 20260510205323 | 51 | 4 | 7.8 | 15.6 | 0.00 | 0.00 | 0.00 | 82 | 1011.8 |
| 20260510204820 | 51 | 357 | 7.8 | 12.2 | 0.00 | 0.00 | 0.00 | 82 | 1011.8 |
| 20260510204321 | 51 | 0 | 8.7 | 17.4 | 0.00 | 0.00 | 0.00 | 82 | 1011.9 |
| 20260510203821 | 51 | 0 | 7.8 | 17.4 | 0.00 | 0.00 | 0.00 | 82 | 1011.9 |
| 20260510203321 | 51 | 18 | 7.8 | 14.8 | 0.00 | 0.00 | 0.00 | 82 | 1011.8 |
| 20260510202822 | 51 | 3 | 7.8 | 14.8 | 0.00 | 0.00 | 0.00 | 82 | 1011.9 |
| 20260510202322 | 51 | 16 | 7.8 | 13.0 | 0.00 | 0.00 | 0.00 | 82 | 1012.0 |
| 20260510201819 | 51 | 14 | 8.7 | 16.5 | 0.00 | 0.00 | 0.00 | 82 | 1012.0 |
| 20260510201323 | 51 | 37 | 8.7 | 16.5 | 0.00 | 0.00 | 0.00 | 82 | 1012.0 |
| 20260510200820 | 51 | 3 | 8.7 | 16.5 | 0.00 | 0.00 | 0.00 | 82 | 1012.0 |
| 20260510200320 | 51 | 343 | 8.7 | 16.5 | 0.00 | 0.00 | 0.00 | 81 | 1012.1 |
| 20260510195821 | 51 | 292 | 7.8 | 14.8 | 0.00 | 0.00 | 0.00 | 81 | 1012.1 |
| 20260510195319 | 51 | 339 | 7.8 | 15.6 | 0.00 | 0.00 | 0.00 | 81 | 1012.1 |
| 20260510194821 | 51 | 346 | 8.7 | 16.5 | 0.00 | 0.00 | 0.00 | 81 | 1012.1 |
| 20260510194321 | 51 | 325 | 8.7 | 16.5 | 0.00 | 0.00 | 0.00 | 81 | 1012.0 |
| 20260510193819 | 52 | 325 | 7.8 | 14.8 | 0.00 | 0.00 | 0.00 | 81 | 1012.2 |
| 20260510193321 | 52 | 325 | 7.8 | 15.6 | 0.00 | 0.00 | 0.00 | 81 | 1012.1 |
| 20260510192820 | 52 | 18 | 8.7 | 15.6 | 0.00 | 0.00 | 0.00 | 81 | 1012.1 |
| 20260510192318 | 52 | 325 | 7.8 | 15.6 | 0.00 | 0.00 | 0.00 | 81 | 1012.2 |
| 20260510191821 | 52 | 347 | 8.7 | 16.5 | 0.00 | 0.00 | 0.00 | 80 | 1012.1 |
| 20260510191320 | 52 | 293 | 9.6 | 16.5 | 0.00 | 0.00 | 0.00 | 80 | 1012.2 |
| 20260510190817 | 53 | 312 | 8.7 | 15.6 | 0.00 | 0.00 | 0.00 | 80 | 1012.2 |
| 20260510190356 | 53 | 330 | 9.6 | 20.9 | 0.00 | 0.00 | 0.00 | 80 | 1012.2 |
| 20260510185350 | 53 | 0 | 7.8 | 18.2 | 0.00 | 0.00 | 0.00 | 80 | 1012.4 |
| 20260510184312 | 53 | 42 | 10.4 | 20.9 | 0.00 | 0.00 | 0.00 | 79 | 1012.3 |
| 20260510183815 | 53 | 5 | 11.3 | 20.9 | 0.00 | 0.00 | 0.00 | 79 | 1012.2 |
| 20260510183313 | 53 | 6 | 9.6 | 20.0 | 0.00 | 0.00 | 0.00 | 80 | 1012.4 |
| 20260510182816 | 54 | 7 | 8.7 | 20.9 | 0.00 | 0.00 | 0.00 | 80 | 1012.3 |
| 20260510182312 | 54 | 325 | 10.4 | 20.9 | 0.00 | 0.00 | 0.00 | 80 | 1012.3 |
| 20260510181810 | 54 | 347 | 10.4 | 18.2 | 0.00 | 0.00 | 0.00 | 80 | 1012.3 |
| 20260510181309 | 54 | 345 | 9.6 | 18.2 | 0.00 | 0.00 | 0.00 | 80 | 1012.4 |
| 20260510180808 | 54 | 330 | 8.7 | 18.2 | 0.00 | 0.00 | 0.00 | 80 | 1012.4 |
| 20260510180309 | 54 | 8 | 9.6 | 18.2 | 0.00 | 0.00 | 0.00 | 80 | 1012.4 |
| 20260510175810 | 54 | 316 | 9.6 | 17.4 | 0.00 | 0.00 | 0.00 | 80 | 1012.5 |
| 20260510175306 | 54 | 335 | 10.4 | 20.9 | 0.00 | 0.00 | 0.00 | 79 | 1012.5 |
| 20260510174804 | 55 | 325 | 9.6 | 20.9 | 0.00 | 0.00 | 0.00 | 79 | 1012.5 |
| 20260510174305 | 55 | 330 | 9.6 | 18.2 | 0.00 | 0.00 | 0.00 | 80 | 1012.5 |
| 20260510173803 | 55 | 358 | 10.4 | 19.1 | 0.00 | 0.00 | 0.00 | 79 | 1012.6 |
| 20260510173306 | 55 | 320 | 8.7 | 19.1 | 0.00 | 0.00 | 0.00 | 79 | 1012.5 |
| 20260510172803 | 56 | 6 | 9.6 | 19.1 | 0.00 | 0.00 | 0.00 | 79 | 1012.4 |
| 20260510172306 | 56 | 8 | 11.3 | 21.7 | 0.00 | 0.00 | 0.00 | 78 | 1012.7 |
| 20260510171802 | 56 | 339 | 10.4 | 21.7 | 0.00 | 0.00 | 0.00 | 78 | 1013.0 |
| 20260510171304 | 56 | 354 | 9.6 | 17.4 | 0.00 | 0.00 | 0.00 | 78 | 1012.6 |
| 20260510170804 | 56 | 16 | 10.4 | 18.2 | 0.00 | 0.00 | 0.00 | 77 | 1012.6 |
| 20260510170335 | 56 | 346 | 10.4 | 19.1 | 0.00 | 0.00 | 0.00 | 77 | 1012.8 |
| 20260510165306 | 57 | 339 | 9.6 | 20.9 | 0.00 | 0.00 | 0.00 | 77 | 1012.7 |
| 20260510164806 | 57 | 33 | 9.6 | 20.9 | 0.00 | 0.00 | 0.00 | 77 | 1012.7 |
| 20260510164302 | 57 | 348 | 9.6 | 22.6 | 0.00 | 0.00 | 0.00 | 77 | 1012.8 |
| 20260510163817 | 57 | 8 | 10.4 | 22.6 | 0.00 | 0.00 | 0.00 | 76 | 1012.5 |
| 20260510163303 | 57 | 358 | 11.3 | 17.4 | 0.00 | 0.00 | 0.00 | 77 | 1012.9 |
| 20260510162803 | 57 | 314 | 9.6 | 17.4 | 0.00 | 0.00 | 0.00 | 76 | 1012.8 |
| 20260510162306 | 58 | 5 | 8.7 | 15.6 | 0.00 | 0.00 | 0.00 | 76 | 1012.7 |
| 20260510161834 | 58 | 352 | 9.6 | 20.0 | 0.00 | 0.00 | 0.00 | 77 | 1012.8 |
| 20260510160812 | 58 | 344 | 11.3 | 21.7 | 0.00 | 0.00 | 0.00 | 75 | 1012.8 |
| 20260510160303 | 58 | 18 | 11.3 | 21.7 | 0.00 | 0.00 | 0.00 | 76 | 1012.8 |
| 20260510155804 | 58 | 27 | 12.2 | 21.7 | 0.00 | 0.00 | 0.00 | 75 | 1013.2 |
| 20260510155305 | 59 | 343 | 11.3 | 21.7 | 0.00 | 0.00 | 0.00 | 74 | 1013.2 |
| 20260510154833 | 59 | 0 | 10.4 | 18.2 | 0.00 | 0.00 | 0.00 | 75 | 1013.2 |
| 20260510153807 | 59 | 19 | 11.3 | 19.1 | 0.00 | 0.00 | 0.00 | 74 | 1013.3 |
| 20260510153304 | 59 | 8 | 10.4 | 19.1 | 0.00 | 0.00 | 0.00 | 73 | 1013.4 |
| 20260510152831 | 59 | 17 | 9.6 | 19.1 | 0.00 | 0.00 | 0.00 | 74 | 1013.3 |
| 20260510151805 | 60 | 325 | 7.8 | 14.8 | 0.00 | 0.00 | 0.00 | 73 | 1013.5 |
| 20260510151302 | 60 | 358 | 8.7 | 17.4 | 0.00 | 0.00 | 0.00 | 74 | 1013.6 |
| 20260510150848 | 60 | 351 | 9.6 | 17.4 | 0.00 | 0.00 | 0.00 | 72 | 1013.6 |
| 20260510145802 | 60 | 335 | 8.7 | 18.2 | 0.00 | 0.00 | 0.00 | 73 | 1013.7 |
| 20260510145305 | 60 | 2 | 9.6 | 18.2 | 0.00 | 0.00 | 0.00 | 73 | 1013.6 |
| 20260510144801 | 60 | 22 | 10.4 | 17.4 | 0.00 | 0.00 | 0.00 | 72 | 1013.7 |
| 20260510144304 | 60 | 16 | 10.4 | 17.4 | 0.00 | 0.00 | 0.00 | 72 | 1013.7 |
| 20260510143801 | 61 | 354 | 9.6 | 17.4 | 0.00 | 0.00 | 0.00 | 72 | 1013.7 |
| 20260510143302 | 60 | 1 | 9.6 | 18.2 | 0.00 | 0.00 | 0.00 | 70 | 1013.7 |
| 20260510142806 | 60 | 13 | 9.6 | 18.2 | 0.00 | 0.00 | 0.00 | 72 | 1014.1 |
| 20260510142339 | 60 | 19 | 9.6 | 19.1 | 0.00 | 0.00 | 0.00 | 71 | 1013.7 |
| 20260510141305 | 60 | 20 | 11.3 | 20.0 | 0.00 | 0.00 | 0.00 | 72 | 1013.8 |
| 20260510140805 | 60 | 341 | 9.6 | 20.0 | 0.00 | 0.00 | 0.00 | 71 | 1014.2 |
| 20260510140306 | 60 | 20 | 8.7 | 17.4 | 0.00 | 0.00 | 0.00 | 71 | 1014.0 |
| 20260510135806 | 61 | 8 | 7.8 | 17.4 | 0.00 | 0.00 | 0.00 | 72 | 1014.0 |
| 20260510135305 | 61 | 341 | 7.0 | 13.0 | 0.00 | 0.00 | 0.00 | 71 | 1014.0 |
| 20260510134829 | 61 | 354 | 8.7 | 15.6 | 0.00 | 0.00 | 0.00 | 71 | 1014.2 |
| 20260510133803 | 61 | 335 | 8.7 | 14.8 | 0.00 | 0.00 | 0.00 | 70 | 1014.3 |
| 20260510133259 | 61 | 313 | 10.4 | 16.5 | 0.00 | 0.00 | 0.00 | 70 | 1014.3 |
| 20260510132800 | 61 | 29 | 9.6 | 16.5 | 0.00 | 0.00 | 0.00 | 68 | 1014.4 |
| 20260510132258 | 61 | 343 | 9.6 | 17.4 | 0.00 | 0.00 | 0.00 | 69 | 1014.5 |
| 20260510131757 | 61 | 339 | 9.6 | 17.4 | 0.00 | 0.00 | 0.00 | 67 | 1014.5 |
| 20260510131257 | 62 | 0 | 8.7 | 15.6 | 0.00 | 0.00 | 0.00 | 67 | 1014.5 |
| 20260510130756 | 62 | 343 | 8.7 | 14.8 | 0.00 | 0.00 | 0.00 | 65 | 1014.6 |
| 20260510130255 | 62 | 351 | 9.6 | 16.5 | 0.00 | 0.00 | 0.00 | 65 | 1014.6 |
| 20260510125755 | 61 | 346 | 9.6 | 16.5 | 0.00 | 0.00 | 0.00 | 64 | 1014.8 |
| 20260510125359 | 61 | 23 | 8.7 | 16.5 | 0.00 | 0.00 | 0.00 | 66 | 1014.8 |
| 20260510123756 | 61 | 352 | 9.6 | 17.4 | 0.00 | 0.00 | 0.00 | 65 | 1015.1 |
| 20260510123254 | 61 | 349 | 8.7 | 15.6 | 0.00 | 0.00 | 0.00 | 68 | 1014.9 |
| 20260510122757 | 61 | 43 | 8.7 | 19.1 | 0.00 | 0.00 | 0.00 | 65 | 1015.0 |
| 20260510122257 | 61 | 74 | 9.6 | 19.1 | 0.00 | 0.00 | 0.00 | 66 | 1015.0 |
| 20260510121901 | 62 | 339 | 8.7 | 14.8 | 0.00 | 0.00 | 0.00 | 65 | 1015.0 |
| 20260510120256 | 62 | 270 | 9.6 | 14.8 | 0.00 | 0.00 | 0.00 | 66 | 1015.3 |
| 20260510115754 | 61 | 21 | 10.4 | 16.5 | 0.00 | 0.00 | 0.00 | 65 | 1015.3 |
| 20260510115256 | 61 | 19 | 9.6 | 16.5 | 0.00 | 0.00 | 0.00 | 64 | 1015.3 |
| 20260510114756 | 61 | 21 | 9.6 | 16.5 | 0.00 | 0.00 | 0.00 | 63 | 1015.4 |
| 20260510114254 | 61 | 354 | 10.4 | 17.4 | 0.00 | 0.00 | 0.00 | 65 | 1015.3 |
| 20260510113754 | 61 | 339 | 9.6 | 17.4 | 0.00 | 0.00 | 0.00 | 60 | 1015.3 |
| 20260510113255 | 62 | 6 | 8.7 | 15.6 | 0.00 | 0.00 | 0.00 | 67 | 1015.4 |
| 20260510112754 | 62 | 342 | 8.7 | 14.8 | 0.00 | 0.00 | 0.00 | 69 | 1015.4 |
| 20260510112305 | 62 | 35 | 9.6 | 14.8 | 0.00 | 0.00 | 0.00 | 67 | 1015.6 |
| 20260510111937 | 62 | 342 | 8.7 | 14.8 | 0.00 | 0.00 | 0.00 | 65 | 1015.6 |
| 20260510105755 | 61 | 341 | 10.4 | 19.1 | 0.00 | 0.00 | 0.00 | 63 | 1015.7 |
| 20260510105255 | 61 | 356 | 9.6 | 19.1 | 0.00 | 0.00 | 0.00 | 63 | 1015.9 |
| 20260510104756 | 61 | 18 | 8.7 | 16.5 | 0.00 | 0.00 | 0.00 | 64 | 1015.8 |
| 20260510104256 | 61 | 352 | 7.8 | 14.8 | 0.00 | 0.00 | 0.00 | 67 | 1015.7 |
| 20260510103753 | 61 | 52 | 10.4 | 22.6 | 0.00 | 0.00 | 0.00 | 68 | 1015.8 |
| 20260510103330 | 60 | 263 | 11.3 | 22.6 | 0.00 | 0.00 | 0.00 | 66 | 1015.9 |
| 20260510102254 | 61 | 358 | 8.7 | 14.8 | 0.00 | 0.00 | 0.00 | 65 | 1015.9 |
| 20260510101752 | 60 | 358 | 8.7 | 14.8 | 0.00 | 0.00 | 0.00 | 65 | 1015.8 |
| 20260510101332 | 60 | 309 | 8.7 | 15.6 | 0.00 | 0.00 | 0.00 | 65 | 1015.9 |
| 20260510100351 | 60 | 330 | 8.7 | 17.4 | 0.00 | 0.00 | 0.00 | 65 | 1015.9 |
| 20260510095253 | 60 | 41 | 8.7 | 17.4 | 0.00 | 0.00 | 0.00 | 68 | 1016.0 |
| 20260510094754 | 60 | 6 | 8.7 | 15.6 | 0.00 | 0.00 | 0.00 | 66 | 1016.0 |
| 20260510094252 | 60 | 2 | 7.8 | 13.0 | 0.00 | 0.00 | 0.00 | 66 | 1016.1 |
| 20260510093753 | 60 | 10 | 7.0 | 12.2 | 0.00 | 0.00 | 0.00 | 65 | 1016.1 |
| 20260510093306 | 60 | 6 | 7.8 | 13.0 | 0.00 | 0.00 | 0.00 | 64 | 1016.1 |
| 20260510092753 | 60 | 6 | 7.0 | 13.0 | 0.00 | 0.00 | 0.00 | 65 | 1016.1 |
| 20260510092252 | 60 | 343 | 7.8 | 16.5 | 0.00 | 0.00 | 0.00 | 65 | 1016.2 |
| 20260510091829 | 60 | 0 | 10.4 | 17.4 | 0.00 | 0.00 | 0.00 | 65 | 1016.2 |
| 20260510090754 | 60 | 321 | 10.4 | 19.1 | 0.00 | 0.00 | 0.00 | 67 | 1016.3 |
| 20260510090259 | 60 | 8 | 9.6 | 19.1 | 0.00 | 0.00 | 0.00 | 68 | 1016.3 |
| 20260510085752 | 60 | 40 | 9.6 | 19.1 | 0.00 | 0.00 | 0.00 | 70 | 1016.3 |
| 20260510085254 | 59 | 359 | 8.7 | 19.1 | 0.00 | 0.00 | 0.00 | 70 | 1016.4 |
| 20260510084753 | 59 | 59 | 7.8 | 14.8 | 0.00 | 0.00 | 0.00 | 73 | 1016.3 |
| 20260510084253 | 59 | 273 | 7.8 | 14.8 | 0.00 | 0.00 | 0.00 | 73 | 1016.4 |
| 20260510083751 | 59 | 356 | 8.7 | 17.4 | 0.00 | 0.00 | 0.00 | 74 | 1016.4 |
| 20260510083251 | 59 | 358 | 7.8 | 17.4 | 0.00 | 0.00 | 0.00 | 74 | 1016.5 |
| 20260510082752 | 59 | 14 | 7.0 | 15.6 | 0.00 | 0.00 | 0.00 | 77 | 1016.5 |
| 20260510082249 | 58 | 10 | 7.8 | 15.6 | 0.00 | 0.00 | 0.00 | 74 | 1016.6 |
| 20260510081750 | 58 | 3 | 8.7 | 15.6 | 0.00 | 0.00 | 0.00 | 76 | 1016.7 |
| 20260510081251 | 58 | 33 | 7.8 | 14.8 | 0.00 | 0.00 | 0.00 | 75 | 1016.6 |
| 20260510080819 | 58 | 359 | 6.1 | 10.4 | 0.00 | 0.00 | 0.00 | 76 | 1016.6 |
| 20260510075747 | 58 | 8 | 7.0 | 12.2 | 0.00 | 0.00 | 0.00 | 76 | 1016.7 |
| 20260510075244 | 58 | 31 | 7.0 | 13.9 | 0.00 | 0.00 | 0.00 | 77 | 1016.6 |
| 20260510074739 | 58 | 346 | 6.1 | 13.9 | 0.00 | 0.00 | 0.00 | 76 | 1016.6 |
| 20260510074321 | 57 | 345 | 7.0 | 13.9 | 0.00 | 0.00 | 0.00 | 78 | 1016.6 |
| 20260510073241 | 57 | 19 | 7.8 | 16.5 | 0.00 | 0.00 | 0.00 | 80 | 1016.7 |
| 20260510072742 | 56 | 0 | 7.8 | 16.5 | 0.00 | 0.00 | 0.00 | 80 | 1016.8 |
| 20260510072240 | 56 | 4 | 7.8 | 12.2 | 0.00 | 0.00 | 0.00 | 81 | 1016.8 |
| 20260510071739 | 56 | 330 | 7.8 | 13.9 | 0.00 | 0.00 | 0.00 | 82 | 1016.9 |
| 20260510071237 | 56 | 339 | 7.8 | 13.9 | 0.00 | 0.00 | 0.00 | 82 | 1016.8 |
| 20260510070811 | 55 | 4 | 6.1 | 13.0 | 0.00 | 0.00 | 0.00 | 83 | 1016.8 |
| 20260510065736 | 54 | 352 | 6.1 | 11.3 | 0.00 | 0.00 | 0.00 | 85 | 1016.7 |
| 20260510065234 | 54 | 330 | 6.1 | 10.4 | 0.00 | 0.00 | 0.00 | 86 | 1016.7 |
| 20260510064734 | 54 | 10 | 6.1 | 13.0 | 0.00 | 0.00 | 0.00 | 86 | 1016.7 |
| 20260510064311 | 53 | 330 | 6.1 | 13.0 | 0.00 | 0.00 | 0.00 | 86 | 1016.7 |
| 20260510063404 | 53 | 5 | 6.1 | 11.3 | 0.00 | 0.00 | 0.00 | 87 | 1016.8 |
| 20260510061731 | 52 | 330 | 5.2 | 11.3 | 0.00 | 0.00 | 0.00 | 89 | 1016.7 |
| 20260510061229 | 52 | 330 | 5.2 | 10.4 | 0.00 | 0.00 | 0.00 | 90 | 1016.8 |
| 20260510060732 | 51 | 312 | 4.3 | 10.4 | 0.00 | 0.00 | 0.00 | 90 | 1016.8 |
| 20260510060229 | 51 | 292 | 4.3 | 8.7 | 0.00 | 0.00 | 0.00 | 91 | 1016.8 |
| 20260510055804 | 51 | 2 | 4.3 | 8.7 | 0.00 | 0.00 | 0.00 | 91 | 1016.8 |
| 20260510055430 | 51 | 21 | 5.2 | 10.4 | 0.00 | 0.00 | 0.00 | 91 | 1016.7 |
| 20260510053230 | 50 | 330 | 4.3 | 7.8 | 0.00 | 0.00 | 0.00 | 92 | 1016.7 |
| 20260510052812 | 50 | 296 | 4.3 | 7.8 | 0.00 | 0.00 | 0.00 | 92 | 1016.7 |
| 20260510051730 | 49 | 335 | 4.3 | 7.8 | 0.00 | 0.00 | 0.00 | 93 | 1016.7 |
| 20260510051230 | 49 | 352 | 3.5 | 7.8 | 0.00 | 0.00 | 0.00 | 93 | 1016.7 |
| 20260510050730 | 49 | 330 | 3.5 | 7.8 | 0.00 | 0.00 | 0.00 | 93 | 1016.7 |
| 20260510050228 | 49 | 339 | 3.5 | 7.0 | 0.00 | 0.00 | 0.00 | 93 | 1016.7 |
| 20260510045727 | 49 | 321 | 4.3 | 7.0 | 0.00 | 0.00 | 0.00 | 93 | 1016.7 |
| 20260510045227 | 49 | 330 | 5.2 | 7.8 | 0.00 | 0.00 | 0.00 | 93 | 1016.7 |
| 20260510044813 | 49 | 339 | 5.2 | 7.8 | 0.00 | 0.00 | 0.00 | 93 | 1016.7 |
| 20260510043730 | 49 | 335 | 4.3 | 7.8 | 0.00 | 0.00 | 0.00 | 93 | 1016.7 |
| 20260510043227 | 49 | 314 | 4.3 | 7.8 | 0.00 | 0.00 | 0.00 | 93 | 1016.8 |
| 20260510042833 | 49 | 301 | 4.3 | 7.8 | 0.00 | 0.00 | 0.00 | 93 | 1016.7 |
| 20260510041728 | 49 | 330 | 4.3 | 8.7 | 0.00 | 0.00 | 0.00 | 93 | 1016.7 |
| 20260510041230 | 49 | 312 | 4.3 | 8.7 | 0.00 | 0.00 | 0.00 | 92 | 1016.7 |
| 20260510040729 | 49 | 325 | 5.2 | 8.7 | 0.00 | 0.00 | 0.00 | 92 | 1016.6 |
| 20260510040227 | 49 | 314 | 4.3 | 8.7 | 0.00 | 0.00 | 0.00 | 92 | 1016.6 |
| 20260510035727 | 49 | 1 | 4.3 | 8.7 | 0.00 | 0.00 | 0.00 | 92 | 1016.6 |
| 20260510035227 | 49 | 335 | 4.3 | 7.8 | 0.00 | 0.00 | 0.00 | 92 | 1016.6 |
| 20260510034730 | 49 | 330 | 4.3 | 7.8 | 0.00 | 0.00 | 0.00 | 92 | 1016.6 |
| 20260510034228 | 49 | 330 | 3.5 | 7.0 | 0.00 | 0.00 | 0.00 | 92 | 1016.6 |
| 20260510033728 | 49 | 330 | 3.5 | 7.8 | 0.00 | 0.00 | 0.00 | 91 | 1016.6 |
| 20260510033228 | 49 | 4 | 4.3 | 7.8 | 0.00 | 0.00 | 0.00 | 91 | 1016.5 |
| 20260510032727 | 49 | 310 | 5.2 | 8.7 | 0.00 | 0.00 | 0.00 | 91 | 1016.5 |
| 20260510032228 | 49 | 321 | 5.2 | 8.7 | 0.00 | 0.00 | 0.00 | 91 | 1016.6 |
| 20260510031729 | 49 | 311 | 5.2 | 7.8 | 0.00 | 0.00 | 0.00 | 91 | 1016.6 |
| 20260510031228 | 50 | 354 | 4.3 | 10.4 | 0.00 | 0.00 | 0.00 | 91 | 1016.6 |
| 20260510030729 | 50 | 335 | 4.3 | 10.4 | 0.00 | 0.00 | 0.00 | 91 | 1016.6 |
| 20260510030332 | 50 | 349 | 4.3 | 8.7 | 0.00 | 0.00 | 0.00 | 91 | 1016.6 |
| 20260510025228 | 50 | 352 | 5.2 | 9.6 | 0.00 | 0.00 | 0.00 | 91 | 1016.7 |
| 20260510024728 | 50 | 354 | 6.1 | 9.6 | 0.00 | 0.00 | 0.00 | 91 | 1016.7 |
| 20260510024230 | 50 | 316 | 5.2 | 9.6 | 0.00 | 0.00 | 0.00 | 91 | 1016.8 |
| 20260510023727 | 50 | 325 | 5.2 | 9.6 | 0.00 | 0.00 | 0.00 | 91 | 1016.7 |
| 20260510023227 | 50 | 318 | 5.2 | 9.6 | 0.00 | 0.00 | 0.00 | 91 | 1016.8 |
| 20260510022734 | 50 | 316 | 5.2 | 9.6 | 0.00 | 0.00 | 0.00 | 91 | 1016.8 |
| 20260510022313 | 50 | 330 | 5.2 | 8.7 | 0.00 | 0.00 | 0.00 | 90 | 1016.9 |
| 20260510021300 | 50 | 330 | 4.3 | 8.7 | 0.00 | 0.00 | 0.00 | 90 | 1016.9 |
| 20260510020304 | 50 | 14 | 4.3 | 7.8 | 0.00 | 0.00 | 0.00 | 90 | 1017.0 |
| 20260510015215 | 51 | 325 | 4.3 | 8.7 | 0.00 | 0.00 | 0.00 | 90 | 1017.0 |
| 20260510014720 | 51 | 330 | 5.2 | 8.7 | 0.00 | 0.00 | 0.00 | 91 | 1017.0 |
| 20260510014215 | 51 | 314 | 5.2 | 8.7 | 0.00 | 0.00 | 0.00 | 91 | 1017.1 |
| 20260510013718 | 51 | 325 | 4.3 | 8.7 | 0.00 | 0.00 | 0.00 | 91 | 1017.1 |
| 20260510013214 | 51 | 330 | 4.3 | 7.0 | 0.00 | 0.00 | 0.00 | 91 | 1017.0 |
| 20260510012716 | 51 | 311 | 4.3 | 7.8 | 0.00 | 0.00 | 0.00 | 91 | 1016.9 |
| 20260510012216 | 51 | 356 | 4.3 | 7.8 | 0.00 | 0.00 | 0.00 | 91 | 1016.9 |
| 20260510011717 | 51 | 310 | 4.3 | 7.0 | 0.00 | 0.00 | 0.00 | 90 | 1016.9 |
| 20260510011216 | 51 | 316 | 3.5 | 7.8 | 0.00 | 0.00 | 0.00 | 91 | 1016.9 |
| 20260510010711 | 51 | 330 | 3.5 | 7.8 | 0.00 | 0.00 | 0.00 | 90 | 1017.0 |
| 20260510010213 | 51 | 330 | 3.5 | 7.8 | 0.00 | 0.00 | 0.00 | 90 | 1017.0 |
| 20260510005756 | 51 | 356 | 4.3 | 7.0 | 0.00 | 0.00 | 0.00 | 90 | 1017.1 |
| 20260510004746 | 51 | 314 | 3.5 | 7.0 | 0.00 | 0.00 | 0.00 | 90 | 1017.2 |
| 20260510003712 | 51 | 342 | 3.5 | 7.0 | 0.00 | 0.00 | 0.00 | 90 | 1017.4 |
| 20260510003212 | 51 | 306 | 3.5 | 7.8 | 0.00 | 0.00 | 0.00 | 90 | 1017.3 |
| 20260510002716 | 52 | 11 | 3.5 | 7.8 | 0.00 | 0.00 | 0.00 | 90 | 1017.3 |
| 20260510002212 | 52 | 340 | 3.5 | 7.0 | 0.00 | 0.00 | 0.00 | 90 | 1017.4 |
| 20260510001713 | 52 | 325 | 2.6 | 4.3 | 0.00 | 0.00 | 0.00 | 90 | 1017.5 |
| 20260510001206 | 52 | 325 | 3.5 | 7.0 | 0.00 | 0.00 | 0.00 | 89 | 1017.6 |
| 20260510000706 | 52 | 335 | 3.5 | 7.8 | 0.00 | 0.00 | 0.00 | 89 | 1017.6 |
| 20260510000206 | 52 | 319 | 4.3 | 7.8 | 0.00 | 0.00 | 0.00 | 89 | 1017.5 |
| 20260509235746 | 52 | 287 | 4.3 | 7.8 | 0.00 | 0.00 | 0.00 | 89 | 1017.5 |
| 20260509234738 | 52 | 315 | 4.3 | 7.0 | 0.00 | 0.00 | 0.00 | 89 | 1017.6 |
| 20260509233706 | 52 | 320 | 3.5 | 7.0 | 0.00 | 0.00 | 0.00 | 88 | 1017.5 |
| 20260509233206 | 52 | 339 | 3.5 | 6.1 | 0.00 | 0.00 | 0.00 | 88 | 1017.5 |
| 20260509232705 | 53 | 300 | 3.5 | 6.1 | 0.00 | 0.00 | 0.00 | 88 | 1017.4 |
| 20260509232205 | 53 | 6 | 3.5 | 7.0 | 0.00 | 0.00 | 0.00 | 88 | 1017.5 |
| 20260509231704 | 53 | 335 | 3.5 | 7.0 | 0.00 | 0.00 | 0.00 | 88 | 1017.5 |
| 20260509231206 | 53 | 350 | 3.5 | 7.8 | 0.00 | 0.00 | 0.00 | 87 | 1017.6 |
| 20260509230707 | 53 | 312 | 4.3 | 8.7 | 0.00 | 0.00 | 0.00 | 87 | 1017.6 |
| 20260509230206 | 53 | 325 | 4.3 | 8.7 | 0.00 | 0.00 | 0.00 | 87 | 1017.5 |
| 20260509225706 | 53 | 325 | 4.3 | 8.7 | 0.00 | 0.00 | 0.00 | 86 | 1017.6 |
| 20260509225230 | 53 | 11 | 3.5 | 7.8 | 0.00 | 0.00 | 0.00 | 86 | 1017.6 |
| 20260509224205 | 53 | 0 | 3.5 | 7.0 | 0.00 | 0.00 | 0.00 | 85 | 1017.7 |
| 20260509223729 | 53 | 325 | 4.3 | 7.8 | 0.00 | 0.00 | 0.00 | 84 | 1017.7 |
| 20260509222702 | 54 | 356 | 3.5 | 7.8 | 0.00 | 0.00 | 0.00 | 83 | 1017.7 |
| 20260509222204 | 54 | 330 | 3.5 | 7.8 | 0.00 | 0.00 | 0.00 | 83 | 1017.6 |
| 20260509221704 | 54 | 352 | 4.3 | 7.8 | 0.00 | 0.00 | 0.00 | 83 | 1017.6 |
| 20260509221205 | 54 | 314 | 4.3 | 10.4 | 0.00 | 0.00 | 0.00 | 82 | 1017.6 |
| 20260509220705 | 54 | 325 | 4.3 | 10.4 | 0.00 | 0.00 | 0.00 | 82 | 1017.7 |
| 20260509220204 | 54 | 311 | 3.5 | 9.6 | 0.00 | 0.00 | 0.00 | 81 | 1017.6 |
| 20260509215702 | 54 | 325 | 4.3 | 8.7 | 0.00 | 0.00 | 0.00 | 81 | 1017.7 |
| 20260509215202 | 55 | 8 | 4.3 | 7.8 | 0.00 | 0.00 | 0.00 | 81 | 1017.6 |